Weather observations for the past three days for
Erie Municipal Airport
Imperial (Metric)
Date Time (mdt) Wind (mph) Vis. (mi.) Weather Sky Cond. Temperature (ºF) Relative Humidity Wind Chill (°F) Heat Index (°F) Pressure Precipitation (in)
Air Dwpt 6 hour altimeter (in) sea level (mb) 1 hr 3 hr 6 hr
Max. Min.
23 05:35 Calm 10.00 Fair CLR 53.8 50.7 89% 30.23 0.0
23 05:15 SE 3 10.00 Fair CLR 54.5 50 85% 30.23 0.0
23 04:55 Calm 10.00 Fair CLR 54.3 50.2 86% 30.23 0.0
23 04:35 Calm 10.00 Fair CLR 55 50.9 86% 30.22 0.0
23 04:15 SE 3 10.00 Fair CLR 56.5 50.2 80% 30.22 0.0
23 03:55 Calm 10.00 Fair CLR 56.8 50.5 80% 30.23 0.0
23 03:35 SW 3 10.00 Fair CLR 56.1 50.7 82% 30.22 0.0
23 03:15 Calm 7.00 Fair CLR 56.7 51.3 82% 30.22 0.0
23 02:55 S 3 10.00 Fair CLR 57.4 50.5 78% 30.22 0.0
23 02:35 SW 3 10.00 Fair CLR 57.6 50.9 79% 30.22 0.0
23 02:15 Calm 10.00 Fair CLR 57.4 52.3 83% 30.22 0.0
23 01:55 Calm 10.00 Fair CLR 59.2 51.6 76% 30.22 0.0
23 01:35 Calm 10.00 Fair CLR 58.8 52.7 80% 30.21 0.0
23 01:15 Calm 10.00 Fair CLR 59 52.5 79% 30.21 0.0
23 00:55 Calm 10.00 Fair CLR 59.2 52.7 79% 30.21 0.0
23 00:35 Calm 10.00 Fair CLR 60.8 52.5 74% 30.21 0.0
23 00:15 Calm 10.00 Fair CLR 61.5 52.2 72% 30.21 0.0
22 23:55 S 3 10.00 Fair CLR 62.8 51.1 66% 30.22 0.0
22 23:35 SW 3 10.00 Fair CLR 63.1 51.3 65% 30.22 0.0
22 23:15 S 3 10.00 Fair CLR 62.6 52.7 70% 30.22 0.0
22 22:55 S 3 10.00 Fair CLR 64.4 52.9 66% 30.21 0.0
22 22:35 S 3 10.00 Fair CLR 66.4 50.4 56% 30.21 0.0
22 22:15 SE 3 10.00 Fair CLR 67.8 47.7 49% 30.21 0.0
22 21:55 S 6 10.00 Fair CLR 68.9 48.6 48% 30.21 0.0
22 21:35 Vrbl 3 10.00 Fair CLR 70.5 50.7 50% 30.21 0.0
22 21:15 Vrbl 3 10.00 Fair CLR 72.1 51.1 48% 30.2 0.0
22 20:55 Calm 10.00 Fair CLR 70 52.7 54% 30.19 0.0
22 20:35 E 7 7.00 Fair CLR 73.4 50.2 44% 30.19 0.0
22 20:15 E 7 7.00 Fair CLR 75.9 48.7 38% 78 30.19 0.0
22 19:55 E 6 7.00 Fair CLR 75.4 48.7 39% 78 30.18 0.0
22 19:35 E 6 6.00 Fair with Haze CLR 77.9 48.4 35% 78 30.18 0.0
22 19:15 E 5 6.00 Fair with Haze CLR 79.9 47.3 32% 79 30.18 0.0
22 18:55 N 5 8.00 Fair CLR 80.8 46.4 30% 80 30.18 0.0
22 18:35 NE 7 8.00 Fair CLR 81.5 46.2 29% 80 30.18 0.0
22 18:15 Vrbl 5 8.00 Fair CLR 82.2 46.6 29% 81 30.17 0.0
22 17:55 N 5 8.00 Fair CLR 82.2 46.2 28% 81 30.17 0.0
22 17:35 N 7 8.00 Fair CLR 82.6 45.9 28% 81 30.17 0.0
22 17:15 NE 6 8.00 Fair CLR 82.6 42.3 24% 80 30.17 0.0
22 16:55 Vrbl 5 8.00 Fair CLR 82.8 44.8 26% 81 30.17 0.0
22 16:35 NE 5 8.00 Fair CLR 82.6 44.4 26% 81 30.18 0.0
22 16:15 N 8 8.00 Fair CLR 83.5 45.5 26% 81 30.18 0.0
22 15:55 N 8 8.00 Fair CLR 82.9 45.9 27% 81 30.19 0.0
22 15:15 N 8 7.00 A Few Clouds FEW370 82.9 43.2 25% 81 30.2 0.0
22 14:55 Vrbl 6 8.00 Fair CLR 82.9 42.1 24% 81 30.21 0.0
22 14:35 NE 8 8.00 Fair CLR 81.7 42.4 25% 80 30.21 0.0
22 14:15 Vrbl 6 8.00 Fair CLR 81.7 42.1 25% 80 30.22 0.0
22 13:55 Vrbl 5 8.00 Fair CLR 81.3 43.2 26% 80 30.22 0.0
22 13:35 NE 8 8.00 A Few Clouds FEW340 81 45 28% 80 30.23 0.0
22 13:15 NE 6 8.00 A Few Clouds FEW280 79.9 43.5 28% 79 30.24 0.0
22 12:55 E 6 9.00 Fair CLR 79.9 45.7 30% 79 30.25 0.0
22 12:35 NE 7 9.00 Fair CLR 79.9 47.7 32% 79 30.25 0.0
22 12:15 E 8 9.00 A Few Clouds FEW320 78.6 47.5 33% 79 30.25 0.0
22 11:55 N 7 9.00 Fair CLR 77.7 48.7 36% 78 30.25 0.0
22 11:35 NE 6 9.00 Fair CLR 77.2 48.9 37% 78 30.26 0.0
22 11:15 Calm 9.00 Fair CLR 75.7 47.8 37% 78 30.26 0.0
22 10:55 Calm 10.00 Fair CLR 74.7 48.4 40% 30.27 0.0
22 10:35 Calm 10.00 Fair CLR 73.2 48.4 42% 30.27 0.0
22 10:15 NW 5 10.00 Fair CLR 72.3 49.3 44% 30.27 0.0
22 09:55 Calm 9.00 Fair CLR 71.4 52 50% 30.27 0.0
22 09:35 Calm 10.00 Fair CLR 69.6 50.2 50% 30.27 0.0
22 09:15 Calm 10.00 Fair CLR 67.5 51.8 57% 30.28 0.0
22 08:55 Calm 9.00 Fair CLR 65.3 52 62% 30.28 0.0
22 08:35 Calm 9.00 Fair CLR 64.8 54 68% 30.28 0.0
22 08:15 Calm 10.00 Fair CLR 63.9 52.5 67% 30.28 0.0
22 07:55 Calm 10.00 Fair CLR 62.2 53.2 73% 30.28 0.0
22 07:35 Calm 10.00 Fair CLR 60.3 54.5 81% 30.27 0.0
22 07:15 Calm 10.00 Fair CLR 56.8 53.6 89% 30.27 0.0
22 06:55 Calm 10.00 Fair CLR 55.8 53.4 92% 30.26 0.0
22 06:35 Calm 10.00 Fair CLR 55.2 51.1 86% 30.26 0.0
22 06:15 S 5 9.00 Fair CLR 53.1 51.6 95% 30.26 0.0
22 05:55 Calm 10.00 Fair CLR 52.2 50.7 95% 30.26 0.0
22 05:35 Calm 10.00 Fair CLR 53.2 51.4 94% 30.26 0.0
22 05:15 Calm 10.00 Fair CLR 53.4 52.2 96% 30.26 0.0
22 04:55 Calm 10.00 Fair CLR 53.2 52.7 98% 30.25 0.0
22 04:35 Calm 9.00 Fair CLR 53.8 52.5 96% 30.25 0.0
22 04:15 Calm 9.00 Fair CLR 53.6 52.2 95% 30.25 0.0
22 03:55 Calm 10.00 Fair CLR 55 53.6 95% 30.25 0.0
22 03:35 Calm 10.00 Fair CLR 55 53.2 94% 30.25 0.0
22 03:15 Calm 10.00 Fair CLR 55.8 53.4 92% 30.25 0.0
22 02:55 Calm 10.00 Fair CLR 56.3 54 92% 30.26 0.0
22 02:35 Calm 10.00 Fair CLR 57.6 54.1 88% 30.26 0.0
22 02:15 SW 5 10.00 Fair CLR 57 54.5 91% 30.26 0.0
22 01:55 SW 5 10.00 Fair CLR 58.6 54.3 86% 30.28 0.0
22 01:35 S 5 10.00 Fair CLR 58.6 54.5 86% 30.28 0.0
22 01:15 SW 6 10.00 Fair CLR 59.9 54.5 82% 30.29 0.0
22 00:55 S 7 10.00 Fair CLR 60.1 54.9 83% 30.29 0.0
22 00:35 S 6 10.00 Fair CLR 59.4 55.4 87% 30.29 0.0
22 00:15 S 6 10.00 Fair CLR 59.9 56.1 87% 30.3 0.0
21 23:55 S 3 10.00 Fair CLR 60.8 57 87% 30.31 0.0
21 23:35 Calm 10.00 A Few Clouds FEW085 61.3 57.2 86% 30.3 0.0
21 23:15 Calm 10.00 Overcast OVC080 62.8 56.1 79% 30.3 0.0
21 22:55 SE 3 10.00 Mostly Cloudy BKN075 62.1 57 84% 30.3 0.0
21 22:35 Calm 10.00 Fair CLR 61.2 58.3 90% 30.3 0.0
21 22:15 Calm 10.00 Fair CLR 62.1 57.6 85% 30.29 0.0
21 21:55 SE 5 9.00 Partly Cloudy SCT065 62.4 57.4 84% 30.28 0.0
21 21:35 S 5 10.00 Overcast BKN060 OVC075 62.8 58.5 86% 30.29 0.0 0.03
21 21:15 Calm 10.00 Overcast BKN060 OVC075 63.5 58.3 83% 30.28 0.0 0.03
21 20:55 NW 8 1.50 Rain BKN060 BKN075 BKN110 63.9 55.4 74% 30.28 0.0 0.02
21 20:35 SW 3 9.00 Partly Cloudy FEW110 SCT160 66.2 51.8 60% 30.27 0.0
21 20:15 S 6 9.00 Mostly Cloudy FEW110 BKN170 66.2 52.2 61% 30.27 0.0
21 19:55 S 12 10.00 Mostly Cloudy FEW075 SCT100 BKN180 68.5 49.3 50% 30.27 0.0
21 19:35 SE 16 G 20 8.00 Overcast BKN070 OVC100 69.4 50 50% 30.27 0.0
21 19:15 Vrbl 5 8.00 Thunderstorm in Vicinity BKN070 BKN095 77.2 53.1 43% 78 30.26 0.0
21 18:55 Calm 9.00 Mostly Cloudy FEW075 SCT100 BKN120 77.4 50.5 39% 78 30.25 0.0
21 18:35 NW 5 8.00 Partly Cloudy FEW070 SCT120 77.9 48.9 36% 78 30.25 0.0
21 18:15 N 8 9.00 A Few Clouds FEW070 77.5 50.7 39% 78 30.25 0.0
21 17:55 Calm 9.00 Fair CLR 78.8 47.7 34% 79 30.25 0.0
21 17:35 N 6 9.00 Fair CLR 78.8 48.7 35% 79 30.25 0.0
21 17:15 Vrbl 3 9.00 Fair CLR 78.4 48.6 35% 79 30.25 0.0
21 16:55 W 6 9.00 Fair CLR 78.8 47.8 34% 79 30.26 0.0
21 16:35 W 7 9.00 Fair CLR 79 48.6 34% 79 30.25 0.0
21 16:15 NW 9 10.00 Fair CLR 78.4 48.4 35% 79 30.26 0.0
21 15:55 W 8 9.00 A Few Clouds FEW380 77.5 50.4 39% 78 30.26 0.0
21 15:35 W 10 10.00 A Few Clouds FEW140 77.7 53.2 43% 79 30.27 0.0
21 15:15 W 13 10.00 Mostly Cloudy BKN130 73.2 52 47% 30.28 0.0
21 14:55 W 15 G 21 10.00 Mostly Cloudy FEW060 BKN120 72 51.4 49% 30.28 0.0
21 14:35 W 14 9.00 Overcast BKN060 OVC080 72.1 56.3 58% 30.29 0.0
21 14:15 W 13 10.00 Overcast OVC065 73.8 54.3 51% 30.29 0.0
21 13:55 SW 5 9.00 Mostly Cloudy BKN060 77.7 51.6 40% 79 30.29 0.0
21 13:35 NW 7 9.00 Mostly Cloudy BKN055 75.6 50.9 42% 78 30.3 0.0
21 13:15 Vrbl 3 9.00 Mostly Cloudy BKN050 74.8 53.1 47% 30.31 0.0
21 12:55 E 9 10.00 A Few Clouds FEW049 74.7 53.1 47% 30.3 0.0
21 12:35 E 9 9.00 A Few Clouds FEW048 77 53.4 44% 78 30.31 0.0
21 12:15 NE 9 10.00 A Few Clouds FEW047 76.1 55.9 50% 78 30.31 0.0
21 11:55 E 9 9.00 A Few Clouds FEW047 74.7 55.8 52% 30.32 0.0
21 11:35 Vrbl 5 10.00 Fair CLR 74.7 56.5 53% 30.32 0.0
21 11:15 NE 6 9.00 A Few Clouds FEW110 73.9 55.8 53% 30.33 0.0
21 10:55 Vrbl 5 10.00 Mostly Cloudy BKN110 74.1 55.8 53% 30.33 0.0
21 10:35 Vrbl 3 10.00 Overcast OVC110 71.8 54.3 54% 30.33 0.0
21 10:15 N 3 10.00 Mostly Cloudy BKN100 71.2 54.1 55% 30.33 0.0
21 09:55 NW 3 10.00 Mostly Cloudy BKN100 BKN160 70.7 55.4 59% 30.33 0.0
21 09:35 N 3 10.00 Mostly Cloudy BKN160 68.4 56.8 67% 30.33 0.0
21 09:15 Calm 10.00 Mostly Cloudy BKN160 66.9 55.9 68% 30.33 0.0
21 08:55 NW 5 10.00 Partly Cloudy SCT160 68.2 56.3 66% 30.33 0.0
21 08:35 Calm 10.00 Mostly Cloudy BKN150 65.7 55.9 71% 30.33 0.0
21 08:15 Calm 10.00 Overcast OVC150 64.9 56.7 75% 30.34 0.0
21 07:55 Calm 10.00 Overcast FEW130 OVC150 64.2 56.7 77% 30.34 0.0
21 07:35 NW 5 10.00 Overcast BKN130 OVC150 63.5 57.6 81% 30.33 0.0
21 07:15 W 3 10.00 Mostly Cloudy BKN130 62.2 58.1 86% 30.33 0.0
21 06:55 Calm 8.00 Overcast OVC120 61.7 57.9 88% 30.34 0.0
21 06:35 Calm 8.00 Overcast OVC120 61.2 58.8 92% 30.33 0.0
21 06:15 N 5 8.00 Overcast OVC110 61.2 58.8 92% 30.33 0.0
21 05:55 NW 3 9.00 Overcast OVC100 60.8 58.5 92% 30.33 0.0
21 05:35 NW 3 10.00 Overcast OVC100 60.6 58.1 91% 30.33 0.0
21 05:15 NW 3 10.00 Overcast BKN110 OVC150 60.6 57.7 90% 30.32 0.0
21 04:55 Calm 10.00 Overcast BKN110 OVC150 61.2 58.1 90% 30.32 0.0
21 04:35 W 3 10.00 Overcast BKN110 OVC140 60.8 58.5 92% 30.31 0.0
21 04:15 Calm 10.00 Overcast OVC110 61.3 58.5 90% 30.31 0.0
21 03:55 Calm 10.00 Overcast OVC110 61 59.4 94% 30.31 0.0
21 03:35 Calm 10.00 Overcast BKN110 OVC150 61 59.4 94% 30.31 0.0
21 03:15 S 3 10.00 Mostly Cloudy BKN120 60.8 58.8 93% 30.31 0.0
21 02:55 Calm 10.00 Overcast BKN120 OVC150 61.2 58.5 91% 30.3 0.0
21 02:35 Calm 10.00 Overcast BKN110 OVC140 61.3 58.3 90% 30.3 0.0
21 02:15 SE 6 10.00 Overcast BKN110 OVC140 61.2 57.7 89% 30.31 0.0
21 01:55 E 3 10.00 Overcast BKN120 OVC140 61 57.7 89% 30.32 0.0
21 01:35 E 6 10.00 Mostly Cloudy BKN120 60.3 57.7 91% 30.32 0.0
21 01:15 NE 5 10.00 Partly Cloudy SCT160 60.4 57 89% 30.32 0.0
21 00:55 SE 5 10.00 Partly Cloudy SCT160 59.5 57 91% 30.33 0.0
21 00:35 SW 5 10.00 Partly Cloudy SCT150 60.6 57.4 89% 30.32 0.0
21 00:15 S 8 10.00 Partly Cloudy FEW110 SCT150 60.8 57.7 90% 30.32 0.0
20 23:55 SW 5 10.00 Partly Cloudy FEW110 SCT160 61.3 58.5 90% 30.34 0.0
20 23:35 S 3 10.00 Mostly Cloudy BKN110 BKN160 61.7 59.2 92% 30.36 0.0
20 23:15 S 5 10.00 Overcast BKN100 OVC120 61.9 59.5 92% 30.38 0.0
20 22:55 SW 5 10.00 Mostly Cloudy BKN110 61.5 59 92% 30.39 0.0
20 22:35 SW 6 10.00 Mostly Cloudy SCT100 SCT130 BKN200 61 59 93% 30.4 0.0
20 22:15 SW 3 10.00 Overcast SCT070 BKN100 OVC130 60.8 59 94% 30.4 0.0
20 21:55 W 7 7.00 Light Rain BKN080 OVC100 60.4 58.5 93% 30.4 0.0
20 21:35 W 10 9.00 Light Rain FEW036 OVC100 61.3 58.5 90% 30.39 0.0 0.01
20 21:15 SW 7 7.00 Light Rain BKN065 OVC095 60.3 57.6 91% 30.38 0.0 0.01
20 20:55 E 6 8.00 Light Rain Thunderstorm in Vicinity FEW043 BKN075 OVC090 58.6 55.8 90% 30.36 0.0
20 20:35 NE 20 G 31 1.50 Light Rain Fog/Mist Thunderstorm in Vicinity FEW042 BKN050 OVC075 58.8 54.9 87% 30.38 0.0 0.41
20 20:15 N 17 G 24 10.00 Overcast BKN080 OVC095 73.8 50.7 44% 30.34 0.0
20 19:55 E 15 10.00 Mostly Cloudy BKN085 73.6 50.4 44% 30.27 0.0
20 19:35 E 17 G 28 9.00 Mostly Cloudy BKN090 73.6 52.2 47% 30.26 0.0
20 19:15 E 20 G 26 7.00 Mostly Cloudy BKN090 76.5 54 46% 78 30.26 0.0
20 18:55 NE 5 9.00 A Few Clouds FEW160 82.2 47.1 29% 81 30.24 0.0
20 18:35 Vrbl 6 10.00 A Few Clouds FEW170 83.8 48.2 29% 82 30.23 0.0
20 18:15 N 6 10.00 Fair CLR 84.9 48 28% 83 30.22 0.0
20 17:55 N 7 9.00 Fair CLR 84.6 46.4 26% 82 30.22 0.0
20 17:35 N 6 10.00 Fair CLR 84.6 46.6 27% 82 30.22 0.0
20 17:15 N 8 9.00 Fair CLR 86 48.4 27% 83 30.23 0.0
20 16:55 NE 6 9.00 Fair CLR 84.4 48.4 29% 82 30.24 0.0
20 16:35 NE 7 9.00 Fair CLR 84.9 49.1 29% 83 30.24 0.0
20 16:15 N 8 9.00 Fair CLR 85.5 50.2 30% 83 30.24 0.0
20 15:55 E 8 9.00 Fair CLR 84.7 49.3 29% 83 30.24 0.0
20 15:35 N 8 9.00 Fair CLR 85.6 48.7 28% 83 30.24 0.0
20 15:15 NE 12 9.00 Fair CLR 85.6 48.6 28% 83 30.26 0.0
20 14:55 NE 7 G 16 9.00 Fair CLR 85.1 48.6 28% 83 30.26 0.0
20 14:35 NE 7 9.00 Fair CLR 85.6 49.5 29% 83 30.27 0.0
20 14:15 NE 3 G 18 9.00 Fair CLR 83.8 50 31% 82 30.27 0.0
20 13:55 N 9 9.00 Fair CLR 85.1 48.9 29% 83 30.28 0.0
20 13:15 N 7 9.00 A Few Clouds FEW065 83.1 52.3 35% 82 30.3 0.0
20 12:55 E 7 9.00 A Few Clouds FEW060 81.9 52.5 36% 81 30.31 0.0
20 12:35 E 9 9.00 Fair CLR 81.5 52.3 36% 81 30.31 0.0
20 12:15 Vrbl 7 9.00 Fair CLR 80.4 52.2 38% 80 30.31 0.0
20 11:55 NE 7 9.00 Fair CLR 79.2 54.3 42% 80 30.31 0.0
20 11:35 N 7 9.00 Fair CLR 79.2 54.3 42% 80 30.32 0.0
20 11:15 Vrbl 7 9.00 Fair CLR 78.1 54 43% 79 30.33 0.0
20 10:55 E 3 9.00 Fair CLR 76.5 54 46% 78 30.33 0.0
20 10:35 NE 7 10.00 Fair CLR 75.7 54.5 48% 78 30.33 0.0
20 10:15 Vrbl 3 10.00 A Few Clouds FEW110 75.2 54.3 48% 78 30.33 0.0
20 09:55 NW 8 10.00 Partly Cloudy SCT100 71.4 54 54% 30.33 0.0
20 09:35 Calm 10.00 Mostly Cloudy BKN100 BKN130 70.7 53.6 55% 30.32 0.0
20 09:15 N 7 10.00 Mostly Cloudy SCT110 BKN130 71.2 53.6 54% 30.32 0.0
20 08:55 N 3 10.00 Mostly Cloudy BKN110 68.9 52.9 57% 30.32 0.0
20 08:35 Calm 10.00 Mostly Cloudy BKN110 68.4 52.7 58% 30.31 0.0
20 08:15 Calm 10.00 Mostly Cloudy BKN110 67.3 53.1 60% 30.31 0.0
20 07:55 NW 3 10.00 Partly Cloudy SCT110 67.1 53.6 62% 30.31 0.0
20 07:35 Calm 10.00 Partly Cloudy SCT120 65.3 52.7 64% 30.3 0.0
20 07:15 Calm 10.00 Mostly Cloudy SCT120 BKN160 64.8 52.3 64% 30.29 0.0
20 06:55 Calm 10.00 Overcast SCT120 OVC160 62.2 52.9 72% 30.29 0.0
20 06:35 Calm 10.00 Overcast BKN120 OVC160 59.7 52.5 77% 30.28 0.0
20 06:15 Calm 10.00 Overcast BKN130 OVC160 57.7 51.4 80% 30.27 0.0
20 05:55 Calm 10.00 Overcast SCT140 OVC160 57.9 51.3 79% 30.27 0.0
Date Time (mdt) Wind (mph) Vis. (mi.) Weather Sky Cond. Air Dwpt Max. Min. Relative Humidity Wind Chill (°F) Heat Index (°F) altimeter (in) sea level (mb) 1 hr 3 hr 6 hr
6 hour
Temperature (ºF) Pressure Precipitation (in)